Tracking 27107 objects as of 20-Mar-2023
HD Live streaming from Space Station
objects crossing your sky now

STARLINK-4160

Track STARLINK-4160 now!
10-day predictions
STARLINK-4160 is classified as:


NORAD ID: 53030
Int'l Code: 2022-076AW
Perigee: 546.2 km
Apogee: 547.5 km
Inclination: 53.2 °
Period: 95.4 minutes
Semi major axis: 6917 km
RCS: Unknown
Launch date: July 7, 2022
Source: United States (US)
Launch site: AIR FORCE EASTERN TEST RANGE (AFETR)
Your satellite tracking list
Your tracking list is empty




NASA's NSSDC Master Catalog

Two Line Element Set (TLE):
1 53030U 22076AW  23079.24369058  .00002553  00000-0  17843-3 0  9997
2 53030  53.2139 276.8787 0000919  98.4337 261.6759 15.08841011 39595
Source of the keplerian elements: AFSPC